User: anonymous
Location: Unspecified
(0.0000°N, 0.0000°E)
Time: 11:59:53
(UTC+02:00)
Language:

Iridium 15 - Orbit

View from above orbital plane
View from above orbital plane
View from above satellite
View from above satellite

Ground track
Ground track

The orbit data is extracted from the following two-line orbital elements,

1 24869U 97034A   14106.51399072  .00000206  00000-0  66539-4 0  8709
2 24869 086.3963 145.7388 0002400 107.5685 005.8724 14.34217868877989
Epoch (UTC): 16 April 2014 12:20:08
Eccentricity: 0.0002400
inclination: 86.3963°
perigee height: 776 km
apogee height: 779 km
right ascension of ascending node: 145.7388°
argument of perigee: 107.5685°
revolutions per day: 14.34217868
mean anomaly at epoch: 5.8724°
orbit number at epoch: 87798

The dashed part of the orbit path shows where the satellite is in the earth's shadow,  

DLR